Regional Weather Roundup
Issued by NWS

Home | Current Version | Previous Version | Graphics & Text | Print | Product List | Glossary On
Versions: 1 2 3 4 5 6 7 8 9 10 11 12 13 14 15 16 17 18 19 20 21 22 23 24 25 26 27 28 29 30 31 32 33 34 35 36 37 38 39 40 41 42 43 44 45 46 47 48 49 50
000
ASUS45 KPSR 212200
RWRAZ

PRELIMINARY ARIZONA REGIONAL HOURLY WEATHER ROUNDUP
NATIONAL WEATHER SERVICE PHOENIX AZ
300 PM MST SUN DEC 21 2014

NOTE: FAIR INDICATES FEW OR NO CLOUDS BELOW 12,000 FEET WITH NO
SIGNIFICANT WEATHER AND/OR OBSTRUCTIONS TO VISIBILITY.

AZZ001>003-036-212300-
NORTHWEST ARIZONA

CITY           SKY/WX    TMP DP  RH WIND       PRES   REMARKS
BULLHEAD CITY  PTSUNNY   59  41  51 CALM      30.08F
KINGMAN        CLOUDY    54  36  50 N3        30.08F
$$

AZZ004>008-015-016-018-212300-
NORTH CENTRAL ARIZONA

CITY           SKY/WX    TMP DP  RH WIND       PRES   REMARKS
GRAND CANYON   MOSUNNY   47  33  58 VRB6      30.11R
PRESCOTT       MOSUNNY   58  32  37 N9        30.07F
FLAGSTAFF      MOSUNNY   51  31  46 W9        30.07F
PAYSON         SUNNY     54  32  43 SW14      30.07F
PAGE           MOSUNNY   46  30  53 CALM      30.02R
$$

AZZ009>014-017-212300-
NORTHEAST ARIZONA

CITY           SKY/WX    TMP DP  RH WIND       PRES   REMARKS
WINSLOW        SUNNY     50  36  58 W3        30.03F
SAINT JOHNS    MOSUNNY   53  29  39 NW8       30.01F
WINDOW ROCK    PTSUNNY   49  30  48 W10G17    30.01F
SHOW LOW       SUNNY     50  27  40 SW3       30.07F
$$

AZZ023-212300-
GREATER PHOENIX AREA

CITY           SKY/WX    TMP DP  RH WIND       PRES   REMARKS
PHOENIX        CLOUDY    65  40  39 SW7       30.03F
GLENDALE       PTSUNNY   63  39  42 S6        30.06F
LUKE AFB       MOSUNNY   62  41  45 S6        30.03F
DEER VALLEY    MOSUNNY   61  37  41 W5        30.02F
SCOTTSDALE     SUNNY     62  39  42 SW3       30.04F
MESA-FALCON    MOSUNNY   61  37  41 SW7       30.04F
MESA-GATEWAY   MOSUNNY   61  39  44 W7        30.07S
CHANDLER       MOSUNNY   63  41  45 SW7       30.05F
$$

AZZ027-028-212300-
SOUTHWEST MARICOPA COUNTY AND PINAL COUNTY

CITY           SKY/WX    TMP DP  RH WIND       PRES   REMARKS
CASA GRANDE    SUNNY     61  37  41 MISG      30.06S
GILA BEND      FAIR      64  39  39 CALM      30.06F
$$

AZZ503-504-507>509-212300-
SOUTHEAST ARIZONA

CITY           SKY/WX    TMP DP  RH WIND       PRES   REMARKS
TUCSON         SUNNY     63  34  33 CALM      30.07F
DAVIS-MONTHAN  SUNNY     61  34  36 NW7       30.04F
NOGALES        SUNNY     65  33  30 VRB5      30.04R
SIERRA VISTA   SUNNY     59  29  31 CALM      30.05F
DOUGLAS        SUNNY     59  29  31 W6        30.04F
SAFFORD        MOSUNNY   57  37  47 W12       30.01F
$$

AZZ020-021-025-026-031-212300-
SOUTHWEST ARIZONA

CITY           SKY/WX    TMP DP  RH WIND       PRES   REMARKS
YUMA           CLOUDY   N/A  40 N/A N10       30.05F
$$

CAZ031-033-041-043-047-048-061-212300-
SOUTHERN CALIFORNIA

CITY           SKY/WX    TMP DP  RH WIND       PRES   REMARKS
DOWNTOWN L.A.  MOSUNNY   68  50  52 CALM      30.04F
L.A. AIRPORT   PTSUNNY   63  55  75 W5        30.06F
SAN DIEGO      PTSUNNY   67  51  56 NW9       30.06F
BURBANK        PTSUNNY   67  49  52 SE7       30.04F
ONTARIO        PTSUNNY   64  48  56 CALM      30.05F
RIVERSIDE      MOSUNNY   65  49  56 CALM      30.05F
PALM SPRINGS   MOSUNNY   68  44  42 CALM      30.05F
EL CENTRO NAS  CLOUDY    68  45  43 CALM      30.04F
IMPERIAL       CLOUDY    67  47  48 E6        30.04F
BLYTHE         CLOUDY    61  44  53 CALM      30.06F
NEEDLES        PTSUNNY   60  41  49 CALM      30.07F
$$

NVZ020-UTZ003-212300-
SOUTHERN NEVADA-UTAH

CITY           SKY/WX    TMP DP  RH WIND       PRES   REMARKS
LAS VEGAS      PTSUNNY   55  38  52 S5        30.04F
SALT LAKE CITY CLOUDY    43  39  86 SE10      29.92S
$$

NMZ009-TXZ055-212300-
NEW MEXICO-WEST TEXAS

CITY           SKY/WX    TMP DP  RH WIND       PRES   REMARKS
ALBUQUERQUE    PTSUNNY   50  28  42 CALM      29.92F
EL PASO        PTSUNNY   63  25  23 VRB7      29.93F
$$


........................KEY........................
SKY/WX - SKY CONDITION/WEATHER
TMP    - TEMPERATURE IN FAHRENHEIT
DP     - DEW POINT IN FAHRENHEIT
RH     - RELATIVE HUMIDITY IN PERCENT
WIND   - DIRECTION AND SPEED IN MILES PER HOUR (MPH)
VRB    - VARIABLE WIND DIRECTION
PRES   - MEAN SEA LEVEL PRESSURE IN INCHES OF MERCURY
         F - FALLING PRESSURE   R - RISING PRESSURE
         S - STEADY PRESSURE
VSB    - VISIBILITY IN MILES
HX     - HEAT INDEX IN FAHRENHEIT
WCI    - WIND CHILL INDEX IN FAHRENHEIT
TC     - TEMPERATURE IN CELSIUS WHICH IS ALSO KNOWN AS
         TEMPERATURE IN CENTIGRADE
AFB    - AIR FORCE BASE
         LUKE AFB IS LUKE AIR FORCE BASE
         DAVIS-MONTHAN IS DAVIS-MONTHAN AIR FORCE BASE
NAS    - NAVAL AIR STATION
         EL CENTRO NAS IS EL CENTRO NAVAL AIR STATION
N/A    - NOT AVAILABLE


USA.gov is the U.S. government's official web portal to all federal, state and local government web resources and services.